Regional Weather Roundup
Issued by NWS

Home | Current Version | Previous Version | Graphics & Text | Print | Product List | Glossary On
Versions: 1 2 3 4 5 6 7 8 9 10 11 12 13 14 15 16 17 18 19 20 21 22 23 24 25 26 27 28 29 30 31 32 33 34 35 36 37 38 39 40 41 42 43 44 45 46
630
ASUS44 KJAN 012010
RWRMS

MISSISSIPPI HOURLY WEATHER ROUNDUP
NATIONAL WEATHER SERVICE JACKSON MS
300 PM CDT MON SEP 01 2014

NOTE: "FAIR: INDICATES FEW OR NO CLOUDS BELOW 12,000 FEET WITH NO
SIGNIFICANT WEATHER AND/OR OBSTRUCTIONS TO VISIBILITY.

MSZ001>002-007>008-010>013-018>021-025>028-034>036-012100-
NORTHWEST MISSISSIPPI

CITY           SKY/WX    TMP DP  RH WIND       PRES   REMARKS
CLARKSDALE     FAIR      91  73  55 S3        30.01F HX 100
CLEVELAND      MOCLDY    89  77  68 SE12      30.00F HX 101
GREENWOOD      MOSUNNY   92  73  53 S10       30.01F HX 100
GREENVILLE     LGT RAIN  82  75  79 SW13      30.00F
GRENADA        FAIR      91  70  49 SW6       30.02F HX  97
OLIVE BRANCH   PTSUNNY   90  77  66 S12       30.02F HX 102
OXFORD         FAIR      88  70  55 SW7       30.05F HX  92
TUNICA         PTCLDY    90  72  55 S10       30.00F HX  96
$$

MSZ003>006-009-014>017-022>024-029>033-037>039-012100-
NORTHEAST MISSISSIPPI

CITY           SKY/WX    TMP DP  RH WIND       PRES   REMARKS
BELMONT        FAIR      88  71  56 S7        30.06F HX  94
COLUMBUS AFB   MOSUNNY   90  70  51 S6        30.04F HX  95
CORINTH        FAIR      91  70  49 S10       30.02F HX  97
GOLDN TRIANGLE PTSUNNY   91  70  49 S7        30.05F HX  97
STARKVILLE     FAIR      91  64  40 SW8       30.04F HX  93
TUPELO         MOSUNNY   92  68  45 VRB7      30.03F HX  96
$$

MSZ040-058-012100-
CENTRAL MISSISSIPPI

CITY           SKY/WX    TMP DP  RH WIND       PRES   REMARKS
JACKSON INTL   MOSUNNY   94  70  45 S7        30.01F HX 100
JACKSON HAWKNS PTSUNNY   92  71  50 SE12      30.02F HX  98
MERIDIAN KEY   SUNNY     93  67  42 SW7G16    30.04F HX  96
MERIDIAN NAS   PTSUNNY   90  70  51 E6        30.05F HX  95
RAYMOND        FAIR      91  86  84 SE8       30.01F HX 122
VICKSBURG      PTSUNNY   91  73  55 S10       29.99F HX  99
$$

MSZ059>079-012100-
SOUTH MISSISSIPPI

CITY           SKY/WX    TMP DP  RH WIND       PRES   REMARKS
BROOKHAVEN     FAIR      90  79  70 CALM      30.04F HX 105
HATTIESBURG    PTSUNNY   94  73  50 S10       30.03F HX 103
MCCOMB         PTSUNNY   85  73  67 S12G22    30.03S HX  91
NATCHEZ        PTSUNNY   90  75  62 SE8       30.00F HX 100
PINE BELT      PTSUNNY   84  72  65 NW5       30.05F
$$

MSZ080>082-012100-
COASTAL MISSISSIPPI

CITY           SKY/WX    TMP DP  RH WIND       PRES   REMARKS
BAY ST LOUIS   MOSUNNY  N/A N/A N/A SE7       30.04F
BILOXI         MOSUNNY   91  76  62 SE13      30.04F HX 102
PASCAGOULA     PTSUNNY   90  74  59 SE15G22   30.05F HX  99
GULFPORT       LGT RAIN  87  76  69 S16       30.04F HX  97
$$



USA.gov is the U.S. government's official web portal to all federal, state and local government web resources and services.